Dewpoint
72 70 69 70 75 76 74 71 60 60 62 56 55 56 57 63 62 56 57 61 57 60 61 63 60 62 62 59 60 61 63 60 59 60 58 66 69 68 70 71 72 72 73 73 73 75 76 77 77 78 77 77 77 77 77 78 78 77 77 77 77 78 78 78 78 78 78 78 77 76 76 75 76 76 77 77 77 77 77 77 77 77 77 77 77 76 77 76 76 76 76 76 76 76 76 76 76
68 69 71 75 76 76 66 67 60 54 58 57 58 58 58 63 62 59 58 62 62 61 62 59 61 60 62 63 61 59 57 58 61 62 64 67 68 69 71 72 72 72 72 73 73 74 75 76 77 77 77 77 77 78 78 78 78 78 77 77 77 77 78 78 78 78 78 77 76 76 76 76 76 76 77 77 77 77 77 77 77 76 77 77 77 77 76 76 76 76 76 76 76 77 76 76 76
71 72 74 74 73 72 69 67 55 54 53 54 58 58 61 60 63 62 64 63 63 63 60 61 61 63 60 63 63 61 57 61 61 64 65 66 67 70 70 71 71 72 73 73 74 74 75 76 77 78 77 77 77 77 77 78 78 78 78 77 77 77 78 78 78 78 78 77 77 77 76 76 76 77 77 77 77 77 77 77 77 77 77 77 77 77 77 77 77 77 77 76 76 76 76 77 77
72 72 70 69 68 71 66 61 58 57 53 53 52 58 61 61 62 63 64 67 67 66 62 63 61 63 62 61 61 62 61 59 62 64 64 66 67 70 70 70 73 72 72 72 73 73 75 76 76 77 78 77 77 78 78 77 78 77 77 77 77 77 77 78 78 78 78 77 77 77 76 76 77 77 77 77 77 77 77 77 77 77 77 77 77 77 77 77 77 76 77 76 76 77 77 77 77
72 72 71 70 66 62 60 57 55 54 52 54 55 61 62 63 63 63 64 66 66 65 63 62 60 61 62 62 63 61 59 60 61 64 65 66 68 68 69 70 71 71 72 72 72 72 75 77 78 78 78 77 78 78 78 77 78 78 77 77 77 77 77 78 78 78 78 78 78 77 77 77 77 77 77 77 77 77 77 77 77 77 77 77 77 77 77 77 77 77 77 76 77 77 77 77 76
71 71 73 68 64 66 64 54 54 56 58 58 59 59 62 64 65 64 65 66 65 64 66 61 62 59 62 63 65 64 65 62 64 63 64 66 68 69 70 71 71 71 72 72 71 73 75 78 78 78 79 78 78 78 78 78 78 78 77 77 77 77 77 77 78 78 77 78 77 77 77 77 77 77 77 77 77 77 77 77 77 77 77 77 77 77 76 77 76 76 76 76 76 76 77 77 76
68 68 71 69 69 67 57 53 53 54 58 61 59 62 63 63 65 65 63 63 63 64 66 62 60 64 61 63 63 66 66 64 65 62 64 66 68 70 70 70 70 70 72 73 73 72 75 78 78 78 78 78 78 78 78 78 78 77 77 77 77 77 77 77 77 78 77 77 77 78 78 77 77 77 77 77 77 77 77 77 77 77 77 77 77 77 76 76 77 77 76 76 76 76 77 77 77
67 60 67 61 59 59 55 56 52 56 58 62 62 62 65 65 65 63 63 65 62 62 61 63 62 63 61 66 62 67 66 67 64 64 65 67 68 70 70 71 70 70 71 72 73 74 78 78 78 78 78 78 78 78 78 78 77 77 77 77 77 77 77 77 77 77 77 77 78 78 77 77 77 77 77 77 77 77 77 77 76 77 77 77 77 77 76 76 76 77 76 76 76 76 77 77 77
62 61 63 61 56 59 57 54 55 59 59 62 62 65 66 66 66 63 64 65 65 65 64 63 64 61 62 64 66 67 65 63 63 67 65 67 68 69 70 71 71 70 71 73 73 76 77 78 78 78 78 78 78 78 78 78 78 78 77 77 77 77 77 77 77 77 78 77 77 77 77 77 77 77 77 77 77 77 77 77 77 77 77 77 77 77 76 76 76 76 76 76 76 76 76 77 76
57 60 55 58 52 53 54 53 51 56 58 62 63 64 66 66 65 64 64 64 65 67 66 66 62 60 62 63 64 69 68 63 63 64 65 66 69 69 70 69 71 71 72 73 74 75 76 78 78 78 78 78 78 78 77 78 78 78 78 77 77 77 77 77 77 77 78 77 77 77 77 77 77 77 77 77 77 77 77 77 77 77 77 77 77 77 77 76 76 76 76 76 76 76 76 76 76
52 60 60 54 47 45 47 52 55 58 61 64 64 66 66 65 65 64 65 65 65 64 64 66 63 63 63 64 68 67 62 62 63 62 64 66 70 69 70 70 71 71 71 74 74 74 75 76 78 78 78 78 78 78 77 77 78 78 78 77 77 77 77 77 77 77 77 77 77 77 77 77 77 77 77 77 77 77 77 77 77 77 77 77 77 77 76 76 76 76 76 76 75 75 75 75 75
48 49 58 52 42 44 47 52 57 58 59 61 62 66 65 65 65 64 65 64 64 64 64 66 60 64 61 62 63 66 61 61 63 63 66 66 69 69 70 70 70 72 73 73 74 74 75 76 77 78 78 78 78 78 77 77 78 78 78 77 77 77 77 77 77 77 77 77 77 77 77 77 77 77 77 77 77 77 77 77 77 78 78 77 77 76 76 76 76 76 76 76 76 75 76 75 75
49 48 45 39 39 42 47 48 51 53 53 56 58 66 67 64 62 64 64 64 65 64 64 65 65 66 62 64 67 65 65 61 62 66 66 66 68 70 70 71 71 72 73 73 73 74 75 76 76 77 77 78 77 78 78 77 77 77 77 77 76 77 77 77 77 77 77 77 77 77 77 77 77 77 77 77 77 77 77 78 78 78 77 77 77 76 76 76 76 75 76 75 75 76 75 75 75
42 49 45 42 42 43 42 46 50 48 50 57 60 62 64 64 64 65 64 63 63 63 63 64 66 66 62 62 66 69 60 61 62 62 66 67 66 68 70 70 71 72 71 72 74 74 75 75 76 76 77 77 77 77 78 77 77 77 77 76 77 77 78 77 77 77 77 77 77 77 77 77 77 77 77 77 78 77 78 78 78 78 77 77 76 76 76 75 76 76 76 76 76 75 75 74 74
41 43 39 40 37 42 46 44 45 46 49 56 60 60 58 64 65 64 63 61 62 64 64 64 62 63 60 63 66 67 61 61 61 63 63 64 68 68 69 70 71 72 71 71 73 74 74 75 75 76 77 76 76 77 77 77 77 77 77 77 77 77 77 78 77 76 77 77 77 77 77 77 77 77 78 78 77 78 78 78 77 77 77 77 76 76 76 75 75 75 76 76 76 76 75 75 75
38 36 37 39 38 40 40 44 49 46 48 55 60 62 58 60 64 62 62 59 61 65 63 61 63 62 61 64 65 65 61 61 61 63 62 63 65 67 68 69 69 71 72 70 71 72 73 74 75 76 75 76 77 76 77 76 77 77 77 77 77 77 77 77 76 76 76 77 77 76 77 77 77 77 78 77 78 78 78 78 77 76 76 77 76 76 76 76 75 75 76 76 76 76 75 75 75
36 40 33 35 38 40 44 45 44 45 51 55 59 58 56 56 59 61 61 60 60 59 61 64 62 64 65 65 63 61 60 60 63 62 62 63 63 67 67 67 68 70 70 70 71 72 70 74 74 75 75 76 76 76 76 76 76 77 77 77 76 76 76 76 77 76 76 76 76 76 77 77 77 77 77 77 77 77 77 77 77 76 76 77 77 76 76 76 76 76 76 75 76 75 76 75 76
33 34 34 35 37 41 46 47 48 50 51 53 56 55 57 57 58 60 64 59 59 61 62 61 62 64 64 63 64 61 60 61 60 61 61 62 62 62 65 68 68 68 70 69 70 71 71 72 73 74 75 75 76 76 76 77 76 77 77 76 76 76 76 76 77 77 76 76 76 76 77 77 77 77 78 77 77 77 76 76 76 77 77 77 76 76 76 76 76 76 76 76 75 76 75 75 75
26 31 35 35 38 41 46 48 51 51 51 55 55 55 54 56 59 60 58 61 62 61 62 64 63 62 60 62 62 60 60 61 61 61 60 60 60 61 62 66 68 67 69 71 71 71 73 72 74 73 73 74 75 75 75 76 77 77 77 77 76 76 76 75 76 76 76 76 76 77 77 77 76 77 78 77 77 76 75 76 75 77 76 76 76 76 76 76 76 76 76 75 76 75 76 75 74
22 31 36 37 38 42 47 53 53 56 53 53 53 53 53 56 57 54 55 58 62 62 62 64 63 62 61 60 59 59 58 60 60 59 59 60 62 59 62 62 65 70 70 71 71 72 72 73 72 73 73 75 75 75 75 76 76 77 77 76 76 75 76 76 75 75 75 76 76 76 76 76 76 79 76 76 76 76 75 76 76 76 76 76 76 76 76 76 76 76 76 75 76 75 74 72 70
28 29 34 40 40 44 46 52 54 54 52 54 56 54 53 56 56 52 56 56 57 62 63 64 62 64 60 60 59 57 58 60 59 59 59 58 62 60 62 61 67 64 70 71 71 70 72 72 73 74 74 75 75 76 75 76 76 75 76 75 76 76 75 76 75 75 76 76 76 77 77 77 78 78 78 77 76 77 75 76 76 76 76 75 76 76 76 75 75 75 75 75 75 73 71 70 73
26 27 31 34 34 37 40 43 51 54 56 56 51 53 56 61 57 52 49 52 53 59 63 62 63 63 59 59 59 58 58 59 59 59 60 59 59 60 62 60 64 63 69 69 72 71 71 72 73 73 74 74 76 76 74 74 75 74 75 76 77 74 74 75 75 75 76 76 77 77 77 76 76 76 76 75 76 76 74 75 75 75 75 75 76 75 74 74 75 74 73 73 72 70 67 70 70
27 29 31 32 37 38 39 45 56 55 50 51 50 53 52 54 55 51 51 50 53 56 57 58 59 61 58 59 57 58 57 57 59 59 60 59 61 61 67 62 65 66 67 68 70 73 72 72 73 72 73 74 74 73 74 74 73 74 74 76 74 74 74 74 75 76 75 77 77 77 77 77 77 76 76 76 75 74 73 72 72 73 73 72 74 73 72 72 73 74 75 75 75 72 70 71 75
23 26 28 25 31 34 37 50 60 51 51 54 57 57 48 51 49 49 49 46 50 54 57 58 60 60 57 56 57 57 58 58 60 60 60 62 62 58 67 65 68 67 67 67 67 74 70 72 72 72 72 72 74 74 74 73 74 73 74 74 72 74 74 74 76 75 76 76 76 76 76 75 76 76 75 75 74 75 74 74 74 74 72 72 72 72 72 71 73 75 76 72 74 73 69 69 69
17 24 30 31 33 34 35 44 49 59 58 58 56 52 50 49 45 48 48 47 50 53 56 57 60 61 57 56 57 58 58 58 60 59 63 61 64 64 66 65 67 69 68 67 70 68 68 69 72 71 72 72 73 74 74 75 74 73 73 74 74 74 74 74 74 75 76 76 76 76 76 74 75 75 74 76 74 73 75 75 75 74 74 75 76 75 73 74 73 75 73 72 74 73 71 71 71
18 23 31 28 28 32 37 44 50 54 56 57 55 59 56 49 50 47 47 48 49 53 55 56 59 57 61 57 60 57 57 57 61 62 62 62 63 62 66 65 67 70 67 67 68 68 67 67 67 72 72 72 71 72 74 73 74 73 73 75 76 76 75 75 75 74 75 75 75 76 76 75 74 75 76 75 74 73 74 74 74 75 76 77 77 72 73 74 74 76 76 74 72 72 72 73 73
18 24 26 29 31 33 34 34 46 50 56 55 53 59 55 52 52 47 46 52 51 51 52 57 61 60 61 59 60 58 57 58 62 62 64 64 63 65 68 69 69 67 68 68 70 70 69 66 66 70 72 74 72 70 72 73 73 74 75 76 75 75 76 75 76 75 75 75 75 75 76 75 74 75 75 74 74 73 73 73 73 74 74 76 76 75 76 76 77 77 76 76 74 76 75 71 70
20 13 28 27 28 25 33 39 38 43 57 59 57 53 53 52 58 53 53 52 52 50 53 54 52 57 60 58 58 68 62 59 61 62 65 66 65 66 66 69 70 70 71 70 71 70 67 67 67 69 70 72 73 70 74 72 74 73 76 75 75 75 76 74 74 75 76 75 75 75 76 75 74 74 75 75 73 73 73 74 75 75 75 76 74 75 75 75 76 76 74 74 73 74 73 72 73
19 20 28 32 31 41 41 42 51 48 49 59 58 53 51 52 51 43 50 48 54 48 54 58 54 58 60 61 59 63 63 61 62 63 65 66 66 66 67 68 70 71 71 73 70 70 68 70 70 69 71 73 74 71 72 72 75 73 75 74 75 74 75 75 75 76 76 75 76 75 75 75 74 74 75 74 74 75 73 73 74 74 75 75 75 74 75 75 75 74 74 73 73 73 72 71 71
17 21 17 24 32 34 44 44 46 48 54 57 58 35 40 49 52 41 44 47 46 53 53 50 53 52 60 60 61 60 62 61 62 62 66 66 67 67 68 68 71 71 70 72 74 74 70 68 70 69 72 71 73 70 72 73 73 73 74 73 75 75 75 74 75 76 76 75 74 75 75 75 75 74 74 74 74 74 74 74 74 74 75 75 75 75 74 73 73 73 72 72 72 72 70 70 70
15 18 17 20 21 35 41 36 46 48 56 49 53 38 35 46 45 45 46 52 46 49 50 49 52 56 56 55 61 61 65 68 67 67 69 67 67 66 68 70 71 72 69 69 72 70 68 68 67 66 70 69 71 70 72 73 73 72 74 74 74 75 75 74 75 76 75 73 74 76 76 76 75 74 74 75 74 74 74 74 74 75 75 75 75 74 74 72 73 72 72 71 70 70 70 71 69
15 11 13 13 19 29 37 31 37 41 53 48 42 40 30 39 43 44 53 49 48 48 47 48 53 56 54 52 54 60 65 67 68 66 69 68 68 68 67 69 71 72 72 72 71 70 66 66 66 66 67 73 73 73 71 73 72 74 75 75 76 76 74 74 75 74 74 74 74 75 76 75 75 74 74 75 74 75 74 74 74 75 75 75 74 74 74 73 72 71 72 71 70 69 68 68 69
13 12 11 13 12 26 35 39 36 40 47 42 39 34 39 35 38 43 48 44 49 43 47 48 49 51 50 54 51 56 64 66 67 67 68 66 67 67 67 70 71 72 71 71 69 70 70 66 68 66 66 67 76 75 76 73 76 78 76 77 75 78 79 77 77 74 74 74 74 75 76 75 74 75 75 75 75 75 75 74 74 74 74 74 73 73 73 73 72 70 72 72 71 71 67 67 68
12 12 11 16 11 9 27 30 39 42 43 36 38 35 34 32 39 42 42 37 51 45 44 51 54 53 53 52 56 60 66 64 67 68 68 67 63 66 67 70 71 71 71 70 70 69 69 69 70 67 70 68 75 76 76 77 79 77 78 78 77 78 75 76 76 77 75 76 76 76 75 75 75 75 74 74 74 74 75 74 74 74 74 73 73 72 72 72 72 71 71 72 71 70 71 68 66
11 14 11 12 9 13 21 26 29 43 42 30 27 33 30 33 39 42 38 34 45 45 45 47 49 46 49 49 58 64 64 62 62 65 67 66 60 60 64 68 69 70 70 69 70 70 71 71 71 70 69 74 76 76 75 77 77 76 78 76 75 76 76 76 76 76 76 75 75 75 76 75 75 75 75 74 73 75 74 74 74 74 74 74 73 73 72 72 71 71 70 71 72 72 71 69 68
8 9 7 9 12 11 15 13 16 16 16 19 24 26 26 27 40 44 45 42 41 51 47 48 46 51 51 55 58 63 63 62 65 63 64 62 60 61 64 67 69 70 70 71 70 70 72 71 69 75 76 75 75 77 78 75 76 75 74 75 75 76 75 76 77 77 77 76 76 76 76 75 76 75 76 76 74 74 74 73 74 73 73 73 73 72 71 72 71 71 70 69 70 71 72 71 70
5 6 8 9 7 8 13 23 26 29 26 17 29 28 26 24 41 47 50 47 44 47 46 51 49 52 51 56 57 55 57 61 64 63 59 61 65 66 68 69 69 69 69 69 69 70 69 70 72 75 75 75 75 75 75 74 73 74 74 73 73 75 76 75 75 73 74 76 74 74 74 75 76 76 75 75 74 74 73 74 74 73 74 73 73 72 71 71 72 71 72 73 69 70 69 69 69
5 6 6 7 7 13 14 21 33 42 23 15 27 25 27 28 42 44 50 43 42 45 49 49 52 45 54 54 59 58 60 61 64 64 63 60 69 71 69 70 71 68 68 68 68 70 71 70 71 74 74 75 75 75 75 76 75 73 73 73 74 75 75 74 73 74 76 76 75 75 75 75 75 75 75 75 75 74 73 74 73 73 73 73 72 72 73 74 74 72 70 72 71 69 69 68 67
3 5 8 8 10 9 20 31 26 33 26 26 27 23 24 35 48 45 44 44 48 48 52 50 53 51 56 54 50 53 60 62 63 64 67 63 71 70 68 67 68 68 67 67 69 71 70 70 73 76 75 74 74 74 75 75 76 76 75 76 76 75 73 73 74 74 76 75 76 76 76 75 76 74 74 74 73 73 73 73 73 74 73 73 73 72 73 73 73 71 72 71 70 69 69 68 69
2 5 7 7 12 6 17 28 28 40 23 24 24 19 24 35 49 47 46 46 55 59 57 50 54 54 53 51 50 51 49 63 57 59 58 66 66 69 67 67 69 69 69 66 67 69 70 72 75 77 74 74 74 73 73 74 74 75 75 75 75 74 74 74 76 76 76 76 75 75 75 75 75 74 74 74 74 74 74 74 74 74 73 73 73 72 72 72 73 72 70 70 70 68 67 67 66
2 6 7 7 4 3 7 9 10 33 33 31 25 29 22 39 33 43 48 51 57 56 55 58 60 62 57 56 52 52 54 57 60 59 63 66 65 71 70 70 71 70 69 67 66 65 67 68 74 75 74 74 73 72 73 75 75 74 74 75 76 74 74 74 75 75 75 75 75 74 74 74 74 75 74 74 75 74 74 74 74 72 73 73 72 72 73 70 71 71 71 71 71 69 66 65 65
0 3 4 5 5 5 5 2 -0 6 20 21 23 15 26 37 32 36 44 45 54 56 60 61 62 62 60 53 54 54 61 66 64 64 64 65 70 71 70 69 69 69 69 68 68 67 66 68 71 75 74 74 73 72 73 74 75 74 74 73 73 73 73 73 73 73 73 73 73 74 74 74 74 74 74 75 75 74 73 73 73 72 72 73 72 71 71 72 71 70 69 70 69 70 70 66 62
-0 0 3 2 5 5 2 -1 1 8 9 29 15 13 21 32 28 34 36 38 47 58 59 59 62 64 59 55 54 62 65 65 65 64 65 66 66 70 69 70 70 70 70 72 71 72 69 71 73 73 75 75 72 72 74 74 73 73 73 73 74 74 73 73 75 74 74 74 75 74 74 74 74 75 75 75 75 74 74 74 73 73 72 72 73 73 72 71 70 68 68 70 69 70 70 69 65
-4 -1 1 3 4 3 1 1 2 9 3 10 15 8 22 20 28 35 35 39 45 49 52 55 57 56 52 51 53 62 66 65 65 65 65 67 67 68 69 69 69 69 69 71 72 72 73 74 70 74 73 73 73 75 74 74 74 74 74 74 75 74 73 73 73 74 74 75 75 74 75 76 76 75 75 74 74 74 74 74 74 73 73 72 73 72 73 72 70 68 71 70 71 71 71 70 67
0 1 2 4 3 2 1 0 -1 -0 1 7 5 9 20 24 33 34 34 36 38 49 47 48 52 54 52 52 49 54 60 63 64 66 64 65 68 66 70 71 70 69 71 71 73 72 72 74 73 73 74 73 73 74 74 74 73 72 74 74 74 73 73 73 74 74 74 74 73 74 74 74 74 74 73 73 73 72 74 74 74 75 74 73 73 73 75 71 70 71 72 71 72 72 70 69 72
6 4 4 2 -0 -0 0 -0 1 5 12 13 10 6 16 29 26 31 35 34 42 46 45 45 49 49 50 50 51 53 60 64 66 62 65 63 69 68 70 68 68 67 69 72 73 74 72 71 73 72 73 73 74 74 75 73 72 72 72 73 73 74 73 74 74 74 74 75 74 74 74 74 73 74 74 74 74 75 75 75 74 74 74 72 74 73 72 72 71 72 71 69 70 71 72 70 72
3 3 2 1 0 1 2 5 13 14 16 17 7 5 6 20 27 24 31 34 42 41 44 44 48 51 50 49 48 49 53 60 63 65 66 67 67 71 70 70 69 68 71 73 74 74 70 71 71 71 71 74 73 74 74 74 73 72 74 74 73 73 73 73 73 73 74 74 73 73 74 74 75 74 74 74 74 74 74 74 74 74 74 74 75 74 73 74 72 72 69 69 72 72 71 70 72
6 4 3 3 8 10 15 19 28 15 14 14 10 8 8 23 38 34 33 33 31 43 41 44 48 49 52 52 49 49 50 54 60 65 67 67 66 67 69 69 70 72 73 72 73 75 70 70 70 70 70 71 73 73 72 73 74 73 73 73 73 74 74 73 73 73 73 72 73 73 75 75 74 74 75 74 73 73 74 74 74 74 75 74 74 74 72 73 72 72 70 70 71 73 73 73 72
7 8 10 6 11 14 12 17 12 12 16 16 11 10 30 33 35 33 35 40 45 40 38 45 47 49 49 50 48 52 52 55 57 61 63 65 65 65 66 69 71 72 73 72 73 71 73 71 71 71 71 69 72 72 72 72 73 73 73 72 73 75 75 74 74 74 74 73 73 73 73 73 74 74 75 74 75 73 74 74 74 74 74 73 74 74 74 74 74 73 71 70 71 72 72 72 73
7 8 9 9 11 11 14 12 13 13 9 8 10 14 19 31 32 35 34 40 42 43 45 46 49 49 48 47 48 49 54 58 61 63 63 64 65 66 66 69 72 73 72 74 74 73 72 73 72 72 71 71 69 72 72 71 72 72 73 73 73 75 74 74 74 73 73 74 74 73 73 73 73 73 72 72 73 73 73 74 74 75 74 74 75 74 74 75 74 71 73 71 69 70 72 72 72
9 1 0 6 11 2 11 12 11 10 13 11 12 12 35 28 33 37 35 35 39 41 44 47 48 51 53 49 52 51 53 59 60 63 63 63 66 66 66 70 70 73 72 73 74 74 73 72 72 71 70 69 70 71 70 71 72 73 74 74 74 75 74 74 74 74 75 75 74 73 74 74 73 73 74 74 74 73 73 73 74 74 74 75 75 75 74 75 74 73 72 71 72 69 71 70 69
2 2 2 2 10 9 3 10 8 7 8 11 20 20 29 29 38 37 36 34 38 43 44 46 48 50 52 55 56 54 54 58 59 62 65 64 64 65 66 67 70 71 72 72 71 72 71 73 71 70 70 69 70 70 72 72 72 73 73 74 74 74 75 74 75 75 75 75 75 74 74 74 74 74 75 76 74 74 73 74 74 73 74 75 75 75 74 74 74 73 72 71 71 69 69 70 70
4 2 1 5 9 5 11 9 6 10 11 20 14 25 28 32 34 33 35 39 40 39 45 49 51 51 53 55 56 56 56 57 60 61 63 65 64 63 61 67 65 70 71 72 73 72 72 72 73 71 70 69 70 71 72 72 73 72 72 73 74 75 74 73 73 73 74 74 75 74 74 74 73 74 74 74 74 74 74 73 73 73 74 75 75 75 73 74 74 74 72 73 71 70 70 69 68
7 3 0 9 8 8 12 9 17 11 15 24 26 25 29 30 36 37 35 36 37 47 44 46 52 53 53 54 58 59 57 58 57 60 61 62 62 62 60 62 66 68 70 71 72 71 72 72 72 74 74 72 72 72 73 73 72 71 72 74 74 74 74 74 74 73 74 75 74 74 74 74 73 73 73 74 74 74 74 75 74 74 73 74 74 74 74 73 74 73 72 73 73 72 71 70 70
7 5 12 7 14 16 22 15 16 17 19 21 36 34 42 44 43 40 38 39 43 45 49 50 52 55 55 55 55 56 56 59 57 59 59 59 60 58 65 65 65 68 71 70 71 71 68 66 70 74 75 75 74 74 74 75 74 73 74 74 73 74 74 74 74 74 75 74 74 74 73 74 74 74 73 73 73 73 73 73 74 73 75 74 74 74 74 74 74 72 71 71 72 72 71 72 71
14 18 12 10 12 12 17 21 20 21 19 18 28 38 46 49 48 48 49 50 47 48 52 54 53 54 55 59 60 56 57 59 60 60 59 56 58 60 63 66 66 65 68 67 68 68 67 65 65 68 75 75 74 73 73 73 74 74 73 74 74 74 75 74 73 73 73 73 73 73 74 73 74 73 73 73 74 74 73 73 73 73 73 73 73 73 75 74 74 73 71 70 70 72 71 72 70
18 17 18 19 17 18 20 21 22 21 21 28 29 26 44 50 50 51 52 52 51 57 59 60 61 62 61 63 64 64 63 62 61 58 55 60 66 65 66 66 69 70 69 67 65 64 65 65 60 62 69 70 72 73 73 73 74 73 73 73 73 74 73 74 73 73 72 73 74 73 74 75 75 75 74 74 74 73 73 74 73 73 74 74 74 74 74 74 73 72 71 71 72 74 72 70 71
19 17 17 15 17 21 21 37 20 19 24 32 23 28 48 50 54 55 55 56 56 58 59 60 61 62 63 63 66 67 66 65 63 64 63 64 66 67 69 70 70 70 72 70 70 67 65 65 64 63 64 67 68 68 73 73 73 73 72 72 73 73 74 74 74 74 73 73 72 73 73 74 73 75 74 73 73 73 73 73 72 72 74 74 75 74 73 72 71 71 70 70 70 71 71 71 71